Theta_e
322 321 321 320 320 319 319 318 316 317 319 319 318 318 318 323 328 328 327 326 325 325 324 325 325 326 327 328 328 327 325 324 322 321 320 321 319 313 311 312 313 313 313 312 312 313 314 315 314 311 312 314 316 317 317 318 318 319 320 319 318 318 319 318 318 317 317 317 315 312 315 318 316 313 314 315 315 315 315 316 317 317 317 316 317 317 317 320
321 321 321 320 320 319 319 317 316 317 319 319 319 318 317 320 326 328 327 326 325 325 325 326 326 327 328 328 329 327 323 322 321 319 320 320 317 312 311 311 312 312 312 312 312 313 314 315 313 311 314 316 316 317 318 318 318 319 320 319 319 320 318 316 317 316 315 317 316 313 314 317 317 315 314 315 315 315 315 316 316 317 318 316 316 318 318 318
322 321 321 320 319 319 318 317 316 317 318 319 319 317 316 317 322 327 327 325 325 325 326 326 328 330 329 328 327 324 322 320 318 319 319 318 316 313 311 311 312 312 311 311 311 313 314 314 312 312 315 316 316 317 317 318 317 318 319 319 320 320 316 313 315 314 313 315 315 314 314 315 315 314 314 315 316 315 316 316 316 317 318 317 316 317 318 318
322 322 321 320 319 318 318 317 315 316 318 318 318 317 316 315 318 323 326 326 325 325 328 330 332 330 327 325 322 319 316 313 314 319 319 317 316 313 310 311 312 312 311 311 312 314 314 313 311 313 316 316 315 316 317 317 317 318 318 319 319 317 316 313 313 313 312 314 315 314 313 314 313 313 314 315 316 315 316 316 316 317 317 317 317 317 318 318
322 321 320 320 319 318 318 316 316 317 318 317 317 316 315 315 315 320 324 325 326 327 331 332 330 326 324 323 319 314 311 311 314 319 320 318 316 313 310 311 313 312 311 311 312 314 312 311 312 314 315 315 316 316 316 315 316 318 315 314 314 314 316 313 312 312 312 313 313 313 314 314 313 313 314 315 316 316 317 316 315 316 316 315 316 317 317 318
321 321 320 320 318 318 317 315 315 316 317 317 316 315 315 314 314 318 321 325 328 331 331 329 325 323 323 320 314 310 310 314 315 316 318 317 315 312 310 311 312 311 309 311 313 313 311 311 313 314 315 315 316 316 315 314 315 318 314 311 311 312 314 312 311 312 312 312 313 313 314 314 313 314 314 314 316 316 316 315 315 315 315 314 315 316 317 317
321 321 320 319 318 318 316 314 314 315 316 316 315 314 315 314 315 319 323 327 330 331 329 325 322 323 320 313 309 308 310 314 312 313 315 314 313 312 311 312 312 310 309 311 314 312 310 311 313 314 315 314 315 314 313 314 314 316 315 312 311 310 312 312 312 312 312 313 313 313 314 313 314 314 313 314 315 316 315 315 315 315 315 315 314 315 316 316
321 320 320 319 318 317 315 314 315 315 315 313 314 315 314 314 316 321 325 328 329 328 325 322 322 322 316 309 308 308 309 313 312 312 313 313 314 312 311 313 312 309 309 312 314 312 310 312 313 314 314 314 314 314 313 314 314 315 314 311 311 310 310 311 311 312 311 312 312 312 313 313 313 313 312 313 315 315 315 315 315 314 315 315 314 315 315 316
321 320 320 319 318 317 315 314 315 314 313 313 316 316 314 315 318 321 325 326 325 324 323 322 321 317 312 309 309 309 311 314 313 311 312 313 314 313 313 313 311 309 310 313 314 312 311 312 313 314 314 312 314 314 313 315 315 314 313 311 311 310 309 310 310 310 310 311 311 312 313 312 311 312 313 314 314 315 315 315 315 314 314 315 315 315 315 315
320 320 319 318 317 316 315 314 313 313 314 315 316 314 314 317 318 320 322 321 321 321 322 320 317 312 309 309 309 310 313 315 312 311 312 313 313 313 313 312 310 310 311 314 313 311 311 312 313 313 313 312 313 313 312 314 314 312 311 311 311 310 309 310 310 310 310 310 311 313 313 311 311 312 314 315 314 314 314 315 315 315 314 314 315 315 314 314
320 319 319 318 317 316 315 313 312 314 315 315 314 314 316 317 317 318 318 318 319 321 321 317 313 312 310 308 309 311 315 314 311 311 311 312 311 311 311 310 310 310 312 314 313 310 310 312 312 313 312 312 312 311 311 312 312 312 312 312 311 310 310 310 311 310 311 311 311 313 312 311 310 311 314 314 314 314 314 314 314 314 314 314 314 314 315 315
319 319 319 318 316 315 314 312 314 317 316 315 315 315 316 316 316 316 316 318 320 320 317 313 313 312 309 308 309 311 314 314 311 311 311 311 311 310 310 310 311 312 313 314 312 310 311 312 313 312 312 312 312 311 312 311 311 312 313 314 311 311 312 311 311 311 311 312 311 312 313 312 312 313 314 314 313 314 313 314 314 314 314 314 314 314 314 315
319 319 318 317 315 314 313 312 315 317 315 315 316 315 315 316 315 315 316 318 319 317 314 312 312 310 308 308 309 310 312 313 311 311 311 311 311 310 310 311 312 312 312 311 311 310 311 312 312 312 311 312 312 312 312 311 311 312 312 313 313 313 313 311 310 311 311 312 311 311 313 315 315 314 314 313 313 313 313 314 313 314 314 314 314 314 314 314
319 319 318 316 315 314 313 312 314 315 314 315 315 315 316 315 314 315 316 318 318 315 313 313 310 308 308 309 309 309 310 311 312 312 311 311 311 310 312 313 313 311 310 310 310 310 311 312 312 311 312 312 311 311 312 311 311 312 312 313 314 314 313 311 310 311 312 312 310 311 313 315 314 312 312 312 313 313 313 314 313 314 314 314 314 313 314 314
318 318 317 315 315 314 313 312 312 313 314 316 315 315 315 315 315 315 317 318 317 315 313 310 308 307 308 308 309 309 310 310 312 313 311 311 311 311 313 313 311 311 311 311 311 311 311 312 311 311 311 311 312 312 312 311 311 311 312 313 314 313 313 312 309 310 312 313 310 311 313 315 314 312 310 311 312 312 312 313 313 314 314 314 314 314 314 314
317 317 316 315 314 313 313 312 312 313 315 316 315 314 315 315 314 315 317 317 316 313 309 307 306 307 308 308 309 310 310 310 312 314 312 312 312 312 313 311 311 311 311 312 312 312 312 311 311 311 311 311 312 313 313 313 312 311 312 315 314 313 313 312 310 309 311 312 311 311 313 314 315 313 310 310 312 312 312 313 313 313 314 314 314 314 314 314
317 316 315 314 314 312 312 311 311 313 315 315 314 314 315 314 312 313 313 312 311 308 306 306 306 307 308 308 310 310 310 310 311 314 314 313 313 312 312 311 311 311 312 312 313 312 311 311 311 311 311 311 312 314 313 313 313 312 312 314 313 312 311 312 312 310 309 312 312 312 312 313 314 313 311 311 312 312 311 312 313 313 313 313 313 314 314 314
317 315 314 313 313 312 311 311 311 313 315 314 313 314 313 311 309 309 309 307 306 306 306 306 306 307 308 307 310 311 310 310 310 313 314 313 313 312 311 311 312 312 312 312 312 312 311 311 312 312 312 311 311 313 313 313 313 313 313 313 312 311 311 311 312 310 310 312 313 313 312 313 314 313 312 312 312 311 311 312 312 312 313 313 313 313 314 314
316 314 313 313 312 311 310 310 312 314 314 313 313 312 310 308 307 307 306 306 307 307 307 308 307 308 308 307 310 311 310 310 309 312 314 312 312 312 311 311 312 312 312 312 312 312 312 312 312 313 313 312 312 313 313 314 314 314 314 314 313 312 311 311 311 308 309 312 313 313 313 313 314 313 314 313 311 311 311 312 312 313 313 313 314 314 314 314
315 313 312 313 312 311 310 311 312 313 312 312 311 310 309 309 309 309 308 306 307 308 307 308 307 308 309 307 309 311 310 310 309 311 313 312 312 312 312 312 312 312 312 313 313 311 312 313 313 314 313 313 313 313 313 313 313 313 314 314 315 314 311 310 310 308 308 312 313 313 313 313 313 313 314 314 312 311 311 312 313 313 314 314 314 314 315 315
315 313 313 313 312 311 310 310 311 312 312 311 309 308 309 310 310 311 310 308 307 308 308 307 307 308 309 308 310 311 310 311 310 311 313 312 311 312 312 312 312 312 311 312 312 311 312 314 314 314 313 312 311 310 310 311 312 312 312 312 313 314 312 310 310 309 307 311 313 312 311 312 313 313 314 314 312 312 312 313 314 314 314 315 315 315 315 315
315 314 313 312 311 311 311 310 311 312 311 310 308 307 308 309 309 309 309 308 308 308 309 307 307 309 308 309 311 311 310 312 311 312 312 311 312 312 312 312 311 312 310 310 312 312 313 314 314 311 309 309 309 308 310 311 312 312 312 312 312 312 312 310 309 309 307 311 313 311 311 314 314 314 315 315 314 313 313 314 314 314 315 315 315 316 315 316
315 315 314 312 311 311 310 311 312 312 310 309 308 307 307 308 310 308 308 309 308 308 308 307 307 309 309 310 312 311 311 312 312 312 312 312 312 311 311 312 311 311 310 311 312 313 313 313 311 308 307 309 309 309 311 312 311 313 313 312 313 313 313 311 311 309 307 308 311 311 312 314 315 314 314 314 313 312 313 313 314 314 314 315 315 315 315 315
315 314 313 313 312 310 310 311 312 312 310 308 308 307 308 309 309 308 309 309 308 309 308 307 308 309 310 311 312 311 311 311 312 312 311 312 312 311 312 311 311 311 310 311 312 313 313 309 305 305 308 311 310 309 311 312 312 314 315 315 315 314 313 313 311 309 308 307 308 311 313 314 315 315 314 313 309 308 310 311 312 313 314 314 315 315 315 315
315 314 313 312 311 310 310 311 312 311 309 308 307 308 309 309 308 308 309 309 309 309 308 308 309 310 310 311 311 311 311 311 312 312 311 312 312 311 311 310 311 311 311 310 311 313 311 305 303 307 309 312 312 310 313 314 312 313 315 315 314 313 313 313 312 311 312 311 309 310 311 312 315 314 314 313 310 310 310 309 311 312 313 313 314 314 314 314
314 314 312 311 311 310 310 311 311 310 309 308 307 308 309 308 308 309 310 309 309 309 308 308 309 310 311 311 311 311 310 311 312 312 312 312 311 311 311 310 310 310 310 309 310 311 308 303 305 310 311 313 313 311 315 316 313 312 313 313 313 314 316 315 314 314 314 313 309 308 311 312 314 315 314 311 312 314 312 312 312 311 312 312 312 312 313 313
315 313 312 311 311 311 311 311 310 309 309 308 307 309 309 308 308 309 309 309 310 309 309 308 308 310 311 312 311 310 310 311 312 312 312 311 311 311 311 310 309 309 307 309 311 310 306 305 308 311 312 313 312 312 314 314 312 314 313 313 313 315 318 317 316 314 313 312 310 310 312 312 312 315 314 310 312 314 313 314 314 311 311 312 312 312 313 313
315 313 312 311 311 311 310 310 309 309 309 307 308 309 308 308 308 309 309 310 310 310 308 307 308 310 311 311 310 310 311 312 312 313 311 311 311 311 311 310 310 310 307 309 312 309 307 309 310 311 312 312 313 315 314 314 314 314 310 311 313 314 316 316 314 313 311 311 312 312 312 311 311 315 313 310 312 314 315 315 314 312 311 312 313 314 314 314
314 313 312 311 311 310 309 308 308 308 308 307 309 309 308 308 308 309 310 310 309 308 308 308 309 310 311 311 310 310 311 311 312 313 311 311 310 311 311 309 309 310 308 310 313 310 309 309 308 310 312 312 313 311 310 315 316 311 307 310 312 313 314 314 313 312 311 311 313 312 310 310 312 317 316 311 311 314 315 314 312 312 312 313 314 314 314 314
314 313 312 311 311 309 309 308 307 307 307 307 309 309 308 308 308 308 308 310 310 308 307 307 309 311 311 310 309 310 310 310 311 311 310 310 310 310 310 309 309 312 313 313 312 310 308 307 307 310 311 310 308 306 306 312 312 308 310 313 313 313 313 312 311 311 311 312 312 308 307 309 310 317 319 313 312 314 313 312 311 311 312 312 313 313 313 313
314 313 312 312 311 309 309 308 307 307 307 308 309 308 307 309 309 308 308 310 311 308 306 307 309 311 310 310 310 309 310 310 310 311 310 309 310 309 310 310 310 313 315 314 312 311 309 309 309 309 307 306 308 308 306 306 307 309 314 314 313 313 312 312 310 310 312 313 309 305 306 308 309 314 316 313 311 312 311 311 312 312 312 312 312 313 314 314
315 314 313 313 311 309 309 308 307 307 307 308 309 307 308 309 308 309 308 309 310 308 308 308 308 310 311 311 311 310 311 311 310 311 311 310 310 310 311 312 312 312 312 312 313 313 312 311 310 308 306 307 312 311 307 307 308 311 314 313 313 313 312 313 312 312 313 311 307 305 306 308 310 312 313 312 312 311 309 310 312 311 311 311 312 313 313 314
315 315 314 314 312 310 308 308 307 307 308 309 309 307 309 308 308 310 308 308 310 309 309 309 308 310 311 311 311 311 312 312 310 311 311 311 311 311 312 313 314 316 313 313 314 313 313 313 310 310 309 309 312 312 310 310 310 312 314 313 313 313 312 313 312 310 311 310 306 304 306 309 311 312 312 313 312 310 308 308 309 309 310 311 312 313 314 314
315 315 314 314 313 311 309 308 307 307 308 309 308 308 310 309 309 311 309 307 309 308 308 310 310 310 311 311 311 311 312 312 310 311 311 311 311 311 312 310 312 317 315 313 314 313 314 313 311 312 311 310 311 312 312 314 311 312 316 314 313 314 314 313 312 311 311 310 306 304 307 311 312 311 312 311 308 308 308 308 309 309 310 312 313 313 314 314
315 315 314 313 314 312 310 308 307 307 309 309 308 308 309 310 309 310 308 307 309 308 309 310 311 311 310 311 311 310 311 312 310 311 311 311 311 312 312 310 310 314 314 312 312 312 313 312 311 309 307 308 311 310 311 314 312 311 311 312 312 314 313 310 308 309 309 309 308 308 310 312 312 311 312 310 307 306 306 307 309 310 311 312 313 314 314 314
315 314 314 313 314 312 310 309 307 308 309 309 308 309 310 310 310 311 309 308 309 309 309 310 311 311 310 310 311 310 310 312 311 311 311 312 312 312 313 312 311 312 313 313 313 311 311 311 311 309 307 307 309 308 308 311 312 310 309 310 311 312 314 310 306 305 306 309 311 310 311 312 311 311 313 312 310 309 308 308 308 309 311 311 312 314 314 314
315 314 314 314 314 313 311 308 307 309 310 308 309 310 311 310 310 311 309 308 309 310 310 311 311 312 311 310 312 311 311 312 311 311 311 311 312 312 312 312 310 311 312 313 313 314 312 311 311 312 311 308 306 306 307 307 309 311 312 311 309 309 312 311 309 308 307 310 311 309 310 310 309 312 316 314 311 311 311 309 308 308 310 311 312 314 314 313
314 314 314 314 314 313 310 308 308 310 309 309 309 311 313 311 307 308 309 308 310 311 311 312 311 312 311 311 311 311 312 312 311 311 312 311 312 312 312 311 310 310 310 310 312 315 316 313 311 310 312 310 307 309 310 307 306 309 311 310 310 311 311 309 310 311 310 310 311 309 307 308 309 312 315 313 311 312 311 310 309 309 310 311 312 314 313 312
314 313 313 313 313 312 310 308 309 311 309 309 310 310 313 313 307 307 308 309 310 311 311 312 312 311 311 312 312 311 312 312 311 311 312 312 311 311 311 312 312 310 307 309 312 315 316 315 312 310 311 311 310 311 312 311 307 306 307 308 311 313 312 310 310 311 311 310 310 310 307 308 311 312 313 312 311 311 310 310 311 310 311 311 311 313 312 312
314 313 312 313 313 311 309 308 310 312 309 309 310 310 312 313 309 307 307 309 311 310 311 314 313 311 312 313 312 311 312 312 311 311 313 311 310 310 309 311 312 309 307 309 313 314 313 313 313 311 310 311 312 312 313 314 310 307 308 309 310 310 309 310 309 308 310 310 309 309 308 310 312 311 311 311 310 310 310 311 311 310 311 312 311 312 314 314
313 313 311 312 313 310 308 309 311 312 309 308 311 313 313 314 312 308 307 309 310 309 310 314 313 312 313 312 311 311 311 312 311 311 313 311 310 311 310 310 311 310 309 310 313 314 312 312 314 312 310 311 312 311 309 312 312 310 309 310 312 311 310 312 311 307 308 309 309 309 309 312 315 311 310 311 309 309 308 308 309 309 309 311 313 314 315 315
312 313 311 311 312 310 308 311 311 310 308 307 308 311 311 311 312 309 307 309 311 310 309 312 313 313 313 312 312 312 311 311 311 312 313 312 311 312 310 309 309 309 310 312 313 313 311 313 314 312 312 312 311 307 303 306 312 311 310 311 313 312 312 313 313 310 307 305 305 307 308 313 316 310 307 307 305 305 304 304 307 309 310 312 315 315 315 315
311 312 311 311 312 310 309 310 310 309 308 306 306 308 308 310 312 310 309 311 311 311 312 313 313 311 312 313 313 312 312 311 311 312 312 312 312 311 309 307 308 309 310 312 312 311 311 315 314 311 311 311 310 308 306 307 311 310 310 312 312 313 314 313 312 311 309 306 307 308 308 313 317 308 303 303 302 303 304 305 306 309 311 313 314 314 313 313
310 310 310 311 311 310 309 310 310 310 309 307 309 309 307 309 311 310 312 314 313 313 316 316 312 309 313 314 312 312 312 311 312 312 313 313 310 308 307 307 309 310 310 311 312 311 311 315 315 312 312 312 311 311 311 310 310 310 311 311 311 313 313 310 310 310 310 309 310 311 310 312 316 311 305 304 304 305 306 306 307 309 311 313 313 312 312 312
310 310 310 311 310 310 310 310 309 310 309 309 311 311 309 309 308 308 312 313 311 313 316 313 310 310 314 314 312 312 312 313 314 313 313 313 309 306 306 307 309 310 309 310 311 311 313 316 314 313 314 314 314 314 314 314 312 310 312 311 310 312 312 311 310 310 310 311 310 311 312 311 312 312 310 310 310 309 308 308 308 310 312 313 312 312 312 312
310 310 310 310 310 310 310 309 309 309 309 309 310 311 311 311 308 307 311 312 309 311 313 312 311 312 313 313 312 312 312 313 314 313 312 312 310 307 306 306 308 309 309 309 309 311 315 316 313 313 314 314 315 315 316 317 314 313 314 314 312 311 312 314 312 310 312 311 309 312 314 312 310 310 311 311 312 312 310 308 309 310 312 312 311 312 312 312
309 310 310 311 311 311 311 309 309 309 309 309 309 310 311 311 310 309 310 311 310 311 313 314 314 313 311 311 312 312 312 312 312 312 312 312 311 309 306 305 307 307 308 308 309 313 316 314 313 315 315 314 315 316 316 317 316 315 316 315 313 311 312 313 313 313 314 312 310 312 314 313 312 311 312 313 313 313 311 309 309 310 312 311 311 311 312 312
307 308 308 310 311 311 311 310 309 309 309 309 310 311 311 311 311 311 310 310 309 310 313 314 313 313 312 311 312 313 312 311 311 312 312 312 312 310 308 307 307 306 308 308 308 313 315 312 313 315 314 314 316 317 317 316 315 315 316 314 312 311 312 313 313 314 314 312 312 314 315 314 312 312 314 314 312 312 311 310 310 311 311 311 311 311 311 311
305 306 306 308 310 310 311 309 308 309 309 309 310 311 311 312 312 311 311 310 310 311 313 314 314 314 314 312 312 313 312 311 312 312 311 311 313 312 310 309 308 306 308 310 309 310 312 313 314 314 312 314 316 315 315 315 314 315 316 315 312 311 312 312 313 314 314 314 314 315 317 315 312 311 314 313 310 310 310 309 310 311 311 311 310 310 310 310
304 305 305 306 307 308 309 308 308 309 309 309 310 310 310 312 312 311 311 312 313 313 313 314 315 314 313 313 314 314 312 312 313 312 311 311 313 312 311 311 310 308 308 310 309 307 309 314 315 312 311 313 313 312 312 312 313 314 314 313 311 311 312 312 313 314 314 314 314 315 316 315 311 311 312 310 308 308 308 310 310 311 311 311 311 311 311 310
304 304 305 306 306 307 309 308 308 309 309 309 309 309 310 311 311 312 311 310 311 313 313 314 314 313 312 312 315 316 313 313 314 311 310 311 311 311 311 311 311 310 310 310 311 309 309 311 312 311 311 312 311 310 311 312 312 312 312 312 311 311 311 312 312 313 313 314 314 314 314 313 311 310 310 309 308 307 309 310 311 311 312 312 312 312 311 310
304 304 305 306 306 306 308 309 309 309 309 309 309 310 310 310 310 312 312 309 309 311 312 313 313 313 313 312 314 315 311 310 311 309 308 310 310 309 310 310 309 310 310 310 311 311 311 311 311 310 312 312 309 308 312 313 311 310 311 312 311 311 312 312 312 313 313 313 313 313 313 312 311 310 310 310 310 309 310 310 311 312 312 312 311 311 310 310
Wind_Speed
42 39 38 37 34 32 30 29 31 34 33 34 36 37 39 40 41 39 38 37 36 35 35 35 33 32 28 23 22 19 16 15 14 16 17 15 10 9 12 9 7 9 10 10 9 9 11 11 9 9 9 10 8 9 9 6 7 6 2 3 3 2 2 4 7 4 1 5 10 13 17 12 8 10 8 7 8 5 7 11 10 11 10 7 7 5 13 22
42 40 38 37 35 33 31 29 31 34 34 33 34 36 39 40 41 41 40 38 36 35 34 33 32 30 26 22 22 20 17 15 15 18 18 16 11 11 14 12 9 8 9 12 12 11 12 11 10 11 11 9 6 8 8 5 6 3 0 3 3 2 2 2 6 6 0 5 12 13 16 11 8 12 11 7 6 7 7 10 10 10 11 10 8 6 13 21
40 40 38 37 35 33 32 30 32 35 34 34 34 35 39 41 41 41 41 39 38 36 33 32 31 29 25 22 20 19 18 14 16 20 20 16 12 13 14 15 14 10 10 12 12 12 12 10 10 12 12 8 6 9 8 5 5 2 2 4 3 3 2 2 6 7 2 6 12 12 15 9 6 12 11 6 5 7 8 9 10 11 14 14 11 8 13 21
40 40 38 35 35 32 31 30 33 35 34 34 35 35 37 40 41 42 41 40 39 36 33 31 30 29 25 23 20 18 14 9 15 22 23 19 14 15 17 17 16 13 12 12 12 12 11 10 11 14 13 6 5 9 7 6 5 2 3 2 1 4 2 3 8 8 4 6 10 12 13 9 8 13 10 7 6 6 10 12 13 12 15 17 15 11 12 19
40 39 37 35 33 31 30 30 35 38 35 33 34 35 36 39 41 41 41 40 38 36 33 31 30 29 26 23 19 16 11 4 14 23 26 24 19 19 20 18 18 15 15 13 13 13 11 11 13 15 11 4 6 7 5 6 6 3 1 3 2 3 2 5 8 9 5 5 10 13 12 10 11 11 10 10 7 4 6 12 15 14 13 15 17 15 14 18
40 37 35 33 31 30 29 31 36 39 36 33 33 35 35 38 40 39 40 39 38 36 32 30 30 28 25 22 18 17 15 4 7 17 24 24 21 23 20 19 19 16 16 16 15 14 12 14 14 13 8 4 6 5 5 9 6 3 1 1 2 2 1 6 8 8 8 7 10 11 10 12 12 8 11 14 11 4 3 6 10 13 14 13 15 16 15 17
39 37 33 31 31 30 29 31 36 38 37 33 32 34 35 38 40 39 39 38 37 35 32 31 30 28 24 21 18 20 22 12 5 8 14 20 23 23 20 20 19 17 17 18 18 15 15 17 15 14 8 3 5 4 6 10 6 2 2 3 4 3 2 6 7 7 9 9 9 12 10 11 11 7 10 16 17 13 7 3 4 8 12 13 13 16 16 16
39 36 33 31 31 29 30 32 35 35 34 34 31 33 35 37 39 39 40 38 37 35 33 32 29 28 24 23 23 21 25 24 14 4 3 19 27 21 20 21 20 18 19 19 19 17 17 19 18 15 7 2 6 7 8 9 4 2 3 5 4 3 3 5 6 8 9 8 9 12 8 7 10 6 6 13 17 18 16 10 5 4 8 13 14 14 16 17
39 36 34 32 31 30 31 32 33 32 33 34 33 34 34 36 38 39 40 38 38 36 34 32 28 27 24 25 23 16 22 29 24 12 2 18 29 22 21 23 21 20 19 20 19 17 18 20 21 17 6 5 9 9 11 8 4 3 5 7 6 4 5 6 6 7 8 8 10 10 4 3 9 5 6 13 15 16 18 17 13 8 7 11 15 15 15 16
38 36 34 32 32 32 30 30 32 33 35 35 33 33 32 34 38 39 40 39 38 37 34 31 28 28 26 26 20 10 20 26 25 20 6 9 23 23 23 23 21 20 19 20 19 18 19 19 21 16 6 8 9 7 10 7 3 9 11 9 7 6 6 5 6 8 7 9 10 8 4 3 6 4 5 9 13 15 17 18 19 16 12 10 13 16 16 16
38 35 34 33 33 32 30 29 31 33 35 34 32 33 32 33 37 38 39 39 38 37 33 31 29 28 27 27 20 12 16 19 20 23 12 5 15 22 23 22 20 20 20 20 19 19 19 15 18 15 4 8 10 6 7 4 5 15 16 11 8 6 7 5 6 8 6 6 8 6 4 3 4 4 5 6 8 11 16 19 19 19 18 16 13 15 17 18
37 35 34 34 33 32 30 31 34 34 34 34 32 33 32 33 37 37 38 38 37 35 32 31 29 27 27 25 23 19 13 13 17 23 19 9 11 20 22 20 19 18 18 18 17 18 18 13 17 14 4 8 10 5 6 7 11 15 11 7 5 4 5 4 3 4 2 3 8 8 3 3 6 7 7 9 8 7 11 16 18 19 19 19 18 16 17 19
37 35 34 34 33 31 31 34 37 35 34 34 33 32 31 32 35 35 36 37 35 33 31 29 27 26 25 19 23 26 14 10 14 19 21 14 11 19 21 19 18 17 16 16 15 16 17 12 15 15 8 9 6 5 9 11 12 11 4 2 4 4 3 3 2 1 1 3 9 7 3 5 8 9 8 9 10 8 9 12 15 17 17 19 19 19 18 19
37 35 35 34 32 31 31 34 36 35 35 34 32 31 30 31 33 35 35 34 32 31 29 27 26 27 23 15 18 25 19 12 12 14 19 15 12 19 20 17 18 17 16 15 13 15 17 13 13 13 9 9 9 11 11 7 5 6 3 1 2 5 4 3 3 0 2 4 7 5 4 3 3 5 8 10 11 10 9 10 12 14 16 18 19 20 19 19
38 35 35 33 32 32 32 33 33 35 36 33 31 29 28 30 32 34 32 31 29 28 27 26 27 24 18 13 12 20 23 17 13 13 16 14 14 19 19 17 17 16 15 14 13 14 16 14 12 10 8 11 14 11 6 3 2 2 3 4 2 3 3 4 3 2 0 3 5 5 4 4 1 2 5 8 10 11 11 11 12 13 15 17 18 20 20 20
38 36 34 32 32 32 32 33 32 35 36 32 30 28 27 30 31 31 30 28 27 26 27 26 29 23 11 10 11 17 26 22 15 14 15 14 15 19 19 17 17 16 14 13 12 14 17 15 11 11 11 11 10 7 5 4 3 1 2 4 3 3 3 3 2 2 2 1 4 4 3 3 0 0 3 5 5 7 10 12 14 15 15 16 18 20 21 22
37 35 33 32 33 32 32 33 33 36 35 32 31 28 28 29 29 29 29 28 27 27 28 26 27 19 7 10 12 16 26 27 20 15 14 15 17 19 19 18 17 16 16 14 14 16 16 14 11 9 7 5 3 5 7 5 5 3 1 1 2 2 3 3 3 1 1 1 5 4 4 5 1 1 3 4 2 3 6 10 12 15 16 17 18 19 21 23
37 34 33 34 33 33 33 33 37 37 35 34 32 30 29 29 28 29 29 29 28 26 23 23 23 12 8 13 13 15 25 28 23 16 14 18 18 19 19 19 18 17 17 15 12 13 12 9 7 5 3 3 4 8 8 5 7 8 6 4 2 2 3 3 3 1 0 2 4 5 6 10 8 6 6 6 8 9 10 11 11 14 16 17 18 19 21 22
36 34 34 35 34 34 34 36 41 38 37 35 32 32 30 28 28 27 30 33 29 18 10 21 26 6 3 16 16 14 20 24 24 17 16 20 20 19 18 17 19 19 17 12 7 9 8 6 4 5 6 6 8 9 6 3 7 9 6 4 4 5 3 1 2 2 1 3 6 8 9 10 10 10 9 10 12 13 14 16 16 16 16 17 18 20 22 23
36 35 36 35 35 35 36 40 40 38 40 36 37 37 29 27 21 16 29 33 26 12 1 21 34 5 4 17 22 16 18 21 23 19 17 21 22 20 18 17 18 15 10 6 5 6 6 5 6 7 8 9 8 4 2 3 4 6 5 2 2 4 3 1 3 3 1 3 6 6 8 10 11 11 10 10 11 12 14 17 20 22 20 19 20 21 22 22
37 37 36 35 36 35 37 41 37 39 40 38 46 39 28 32 18 16 31 23 17 11 1 23 37 9 2 18 25 22 21 19 20 21 19 21 23 19 16 15 13 8 3 4 6 4 4 6 6 4 4 6 6 4 5 5 4 6 5 5 2 2 1 2 2 3 2 3 2 1 6 12 13 12 12 12 9 12 16 17 21 24 23 22 22 22 22 21
37 38 37 36 37 36 38 39 36 39 38 41 48 32 29 37 21 29 39 16 9 8 2 26 32 8 5 18 24 24 21 15 16 23 22 24 24 16 12 12 8 4 2 4 6 4 4 5 3 4 5 8 6 3 5 5 4 4 3 4 4 2 2 2 1 3 2 2 1 1 5 11 12 11 13 13 11 14 20 21 21 22 22 23 22 23 23 23
38 38 38 37 37 37 38 39 38 39 39 45 42 24 29 32 18 34 37 15 10 6 7 30 27 9 9 19 22 20 16 12 14 23 25 26 23 15 14 10 5 5 4 5 7 6 5 3 3 8 8 9 6 2 5 6 3 2 3 4 3 2 2 2 3 3 2 1 1 1 4 9 9 9 11 12 12 15 21 24 24 24 23 23 23 23 23 24
39 39 38 38 38 38 37 38 39 38 41 43 33 24 29 26 23 37 27 10 7 4 11 30 25 14 14 19 21 15 13 12 14 23 27 27 21 14 13 10 6 6 5 5 6 5 2 1 5 9 6 7 7 4 6 6 3 1 2 3 2 4 3 1 4 5 1 1 1 2 5 8 5 7 8 6 6 11 17 20 23 26 26 25 25 25 26 26
40 39 39 40 39 37 37 37 37 38 41 37 29 28 30 27 32 35 19 7 5 4 9 21 17 13 16 20 19 14 13 11 14 25 28 26 22 14 10 9 7 6 5 5 4 4 1 1 6 8 3 5 6 6 6 6 5 2 4 3 2 6 6 4 6 5 2 3 1 1 5 5 1 5 7 1 2 6 8 11 16 20 21 22 24 25 24 25
39 39 40 41 39 39 38 35 34 37 39 34 31 33 32 35 36 28 14 5 4 4 7 14 12 12 15 16 18 17 11 7 14 26 27 24 22 15 10 6 2 3 6 6 3 1 2 2 3 5 5 6 5 5 4 4 5 3 3 3 4 6 7 8 7 5 2 2 1 1 5 4 1 3 3 1 5 6 5 7 11 14 15 17 18 17 17 19
39 40 41 41 41 42 39 34 35 39 38 32 34 35 35 38 33 23 11 2 5 7 7 9 11 13 14 15 21 16 6 10 16 21 26 23 20 15 10 5 2 3 5 4 3 1 3 4 2 3 6 5 5 5 4 6 5 2 1 3 6 8 8 8 7 3 0 1 1 1 2 4 5 3 1 1 5 6 6 7 6 8 11 12 11 11 12 15
40 40 41 42 42 43 40 36 40 43 39 34 36 37 37 37 28 17 7 1 5 7 6 7 9 14 15 17 21 9 6 17 13 12 23 22 16 12 7 5 5 5 3 3 5 1 3 4 5 6 6 5 5 2 3 7 3 0 1 2 5 6 6 6 5 2 1 1 4 2 2 4 5 2 1 1 4 5 7 6 4 4 7 7 6 7 9 12
41 41 41 42 41 40 36 35 43 44 36 34 37 37 37 33 21 9 2 3 5 4 5 9 9 13 15 16 13 5 10 13 4 10 21 17 13 8 4 7 9 9 4 2 2 1 1 3 4 4 4 4 2 3 1 2 1 4 5 5 6 5 5 4 2 3 2 3 5 2 2 4 5 2 2 0 2 6 6 3 2 4 5 3 2 3 5 8
42 41 42 42 41 40 33 30 39 39 34 36 38 38 37 26 13 7 3 4 5 4 5 9 9 11 15 13 5 3 6 3 5 16 15 9 10 7 8 12 11 8 4 6 5 2 1 2 2 0 1 3 5 5 4 2 5 10 7 7 8 4 3 2 1 1 2 4 2 2 2 3 4 2 3 2 2 3 3 1 3 4 4 3 3 3 1 3
42 42 42 40 38 39 34 32 38 37 36 38 38 39 32 13 3 5 5 4 5 3 3 5 6 10 17 14 6 4 3 2 8 16 11 6 7 8 10 9 6 5 2 3 4 2 2 3 2 1 3 6 5 6 7 3 6 6 3 6 7 3 1 2 1 0 4 4 1 2 2 3 5 3 1 1 2 2 2 2 5 4 3 2 3 4 3 2
43 41 38 34 32 34 34 35 40 39 37 37 40 37 21 5 3 5 5 6 6 5 5 6 5 9 16 12 6 6 4 3 5 8 8 6 6 7 5 4 5 4 4 5 3 1 3 2 1 2 4 4 3 5 6 2 2 2 4 8 6 3 3 3 2 2 4 2 2 1 1 3 7 6 5 7 6 4 4 5 4 3 5 4 3 3 3 5
43 39 35 29 28 31 32 35 40 41 38 38 38 25 7 4 8 5 5 5 2 2 5 5 5 9 13 10 6 5 3 3 4 3 3 3 5 5 1 0 4 2 3 6 4 3 3 1 2 3 3 6 4 5 5 4 5 5 7 7 6 5 4 5 3 1 3 0 2 0 1 3 5 5 7 10 6 1 5 10 11 11 13 11 6 1 3 6
43 37 33 29 26 29 31 35 42 43 41 40 30 12 4 7 6 4 6 4 1 2 4 7 10 12 10 5 5 5 2 2 2 4 4 4 6 5 2 2 2 2 3 4 3 5 5 3 4 3 2 4 4 2 1 4 5 3 1 2 4 4 3 4 3 2 2 2 2 1 2 3 2 0 3 7 7 7 10 12 13 14 15 12 7 2 3 6
42 36 33 29 28 30 30 36 42 43 44 37 18 6 8 10 5 5 8 5 2 3 5 8 13 12 6 2 2 3 0 1 2 3 5 6 7 8 7 7 4 2 5 5 3 3 3 1 1 1 1 2 2 2 2 4 4 0 1 1 2 2 2 2 1 0 1 1 2 2 3 3 2 4 4 5 6 8 9 10 11 11 10 10 7 4 5 6
44 39 34 30 31 30 30 38 42 42 44 29 9 7 9 5 3 5 7 6 5 9 11 9 8 9 7 3 2 4 2 2 5 4 4 4 4 8 8 6 6 6 5 6 3 1 2 1 2 2 1 2 1 1 2 1 3 2 2 3 2 1 4 4 1 1 1 3 2 2 3 2 3 5 3 1 2 3 3 5 8 8 8 9 7 7 7 6
46 41 35 31 31 29 32 40 41 43 39 19 7 9 4 1 2 3 6 9 10 14 14 9 5 5 8 6 6 7 3 3 4 3 4 3 3 7 7 4 8 9 5 3 2 2 3 3 2 1 2 2 3 1 3 4 2 2 3 5 3 1 1 2 1 1 0 3 2 1 4 3 1 3 1 2 2 3 2 3 4 5 6 7 8 9 8 6
47 41 34 32 31 30 35 39 41 41 28 10 9 10 1 2 2 3 10 13 12 13 11 7 3 2 7 8 7 9 7 5 5 4 5 5 4 7 9 5 6 10 7 2 1 2 2 3 1 2 0 1 3 0 3 3 4 1 2 3 3 1 2 2 2 2 2 3 2 1 2 3 4 4 1 1 3 2 2 2 2 4 7 8 10 11 9 6
46 34 25 31 33 32 37 38 39 35 17 6 11 9 1 3 1 6 19 17 8 8 7 5 2 0 5 8 7 9 7 6 8 6 4 5 3 5 10 6 4 9 10 4 1 2 1 1 2 1 1 0 1 2 5 4 3 2 2 2 0 1 2 2 2 1 3 3 2 1 1 3 5 5 3 3 3 1 2 3 3 6 9 9 10 11 9 6
44 24 15 32 37 32 37 37 32 22 8 6 8 4 1 3 2 9 19 15 4 4 5 3 3 4 4 4 5 7 5 5 9 6 3 5 4 2 6 6 4 6 6 3 1 3 1 1 3 2 1 2 2 2 3 5 4 3 4 5 3 1 1 1 1 1 1 2 2 2 2 2 2 3 5 5 3 2 2 2 3 8 12 10 10 12 12 13
36 15 12 35 37 33 37 31 18 10 4 2 2 2 1 3 5 9 12 8 3 2 3 4 5 6 5 5 5 6 4 4 7 5 1 5 6 3 7 11 10 8 5 3 2 3 1 1 4 4 2 3 2 0 2 1 0 1 3 5 5 4 3 4 3 1 0 1 1 2 3 3 1 1 3 2 1 2 2 1 3 9 15 14 14 18 19 20
23 8 17 37 36 37 37 19 5 4 2 1 2 3 3 3 6 9 8 4 3 3 3 4 4 4 5 5 5 7 7 5 6 6 3 6 9 5 8 15 19 19 12 3 2 2 2 3 4 3 2 2 2 1 1 2 1 1 2 2 3 3 3 5 5 3 3 1 1 1 2 3 0 1 1 1 2 3 3 4 4 9 16 19 20 22 21 20
13 12 26 37 34 38 31 9 2 5 1 1 2 3 3 3 4 6 6 3 1 2 2 3 2 2 2 3 4 8 9 6 6 7 3 4 5 2 6 16 20 19 11 3 2 3 3 3 3 3 1 1 2 0 1 0 1 2 3 2 2 2 2 1 2 3 4 3 3 2 3 4 0 1 2 4 6 8 7 7 7 9 17 22 23 22 21 20
18 23 29 33 34 36 23 5 7 10 4 2 3 3 2 2 2 6 5 3 1 2 3 3 2 2 2 3 5 9 11 6 5 6 2 3 3 1 9 21 21 14 9 6 8 10 6 3 4 4 2 1 1 2 2 2 3 4 2 2 2 2 4 3 1 2 2 4 5 4 6 4 0 1 1 2 4 7 8 8 9 11 18 23 23 22 21 19
19 18 20 30 37 32 15 3 6 9 6 5 4 5 4 2 1 4 4 3 1 1 3 3 2 3 4 4 4 6 11 5 2 4 2 2 2 1 7 21 22 14 8 7 11 13 7 3 6 7 6 5 5 6 6 5 3 3 2 3 5 7 7 4 2 2 4 5 5 6 7 2 1 1 1 2 2 4 6 9 11 15 20 23 24 22 18 14
12 6 10 21 31 28 11 1 5 8 8 9 6 5 6 4 2 2 4 4 1 1 3 2 3 5 4 7 6 7 10 2 2 4 5 3 3 2 4 15 17 12 5 7 16 15 3 1 6 9 9 9 10 11 9 6 6 7 8 8 9 10 8 4 3 3 5 4 4 10 9 2 0 3 4 4 4 4 5 9 15 19 22 24 23 19 16 12
7 4 6 9 15 18 11 5 7 8 10 12 7 5 8 8 6 3 2 2 4 5 3 3 3 5 7 11 8 7 9 3 2 4 5 3 2 2 2 8 10 8 4 9 19 13 2 3 8 10 11 9 7 6 6 8 10 13 13 10 9 9 8 7 7 7 4 5 5 12 10 6 5 6 6 5 4 3 5 12 19 22 24 24 21 18 16 14
3 3 7 8 7 8 10 11 10 9 12 13 5 4 9 10 10 8 3 1 3 6 2 1 4 7 11 15 9 5 7 4 1 3 3 3 3 2 2 2 4 5 2 7 13 7 2 7 7 7 11 8 0 3 5 8 8 7 10 12 12 12 12 12 13 10 8 7 13 14 12 12 10 7 6 6 7 9 11 17 21 22 23 24 21 18 16 14
5 4 6 9 4 4 10 13 10 9 13 12 4 3 10 12 11 7 3 4 5 5 3 5 8 8 10 13 9 8 9 8 5 4 2 4 4 3 3 2 2 4 2 4 5 2 3 6 4 6 11 8 2 3 4 6 5 3 6 10 12 14 15 16 17 15 12 12 16 11 7 9 9 8 7 9 12 13 12 13 16 19 23 24 23 20 18 16
6 4 5 7 4 6 15 16 11 10 9 10 7 4 6 10 10 6 2 4 9 8 4 6 11 9 8 10 9 8 12 13 11 9 8 7 4 3 4 4 3 3 3 4 2 1 3 4 3 5 7 6 3 3 1 3 5 4 3 5 9 11 13 15 16 15 13 14 16 9 4 7 8 10 10 10 10 8 8 11 14 19 23 23 23 23 21 18
7 6 9 9 4 6 12 11 9 9 7 9 10 6 6 9 10 7 2 1 5 8 5 7 10 7 4 7 7 6 10 10 8 15 19 14 11 10 6 5 8 8 4 4 4 2 3 2 3 4 5 5 2 4 4 4 2 2 3 6 11 11 11 13 15 14 13 15 16 12 9 8 6 11 11 11 8 7 10 15 16 19 21 22 24 26 24 20
10 9 11 9 4 4 8 8 8 8 7 10 10 6 5 6 7 7 5 1 2 4 9 13 12 6 4 8 7 6 11 9 6 16 22 13 12 13 7 8 17 14 8 7 4 2 5 5 3 5 8 5 0 3 6 6 2 4 6 11 16 15 15 14 12 12 13 13 13 11 9 4 7 11 9 8 8 10 15 21 22 22 22 23 24 24 23 22
Wind_Direction
206 206 207 208 209 211 215 218 212 204 203 205 207 209 208 207 204 203 205 206 206 205 206 207 205 207 213 217 212 202 201 212 217 229 234 225 229 250 249 239 207 212 225 231 236 226 212 211 213 209 196 182 184 185 188 191 182 179 192 216 186 174 178 178 179 174 123 144 157 169 180 181 166 174 177 179 186 189 195 199 206 203 205 197 180 182 181 181
205 206 206 208 209 211 214 217 212 204 202 205 207 209 210 208 205 204 204 205 205 204 204 205 206 210 212 207 203 198 205 215 221 232 219 205 229 251 240 226 206 202 219 231 230 221 213 214 213 201 189 180 176 175 181 182 174 164 146 212 201 174 139 171 170 158 107 147 153 168 182 187 174 169 172 180 182 184 197 202 210 210 203 198 185 181 183 184
204 204 205 207 209 210 213 216 212 205 204 207 207 207 209 209 206 205 205 204 205 204 204 205 207 208 202 195 194 199 208 214 226 227 205 199 231 247 237 227 219 205 215 233 227 220 214 219 219 198 186 181 168 169 174 178 181 168 197 213 190 152 129 172 171 155 101 134 148 161 176 185 171 168 177 188 173 186 213 204 201 212 209 202 191 183 185 188
201 203 204 205 207 209 211 215 210 203 203 207 207 207 209 208 206 206 205 204 204 204 203 204 202 198 192 188 191 197 196 210 235 222 204 208 226 239 239 226 220 213 220 231 220 217 210 213 215 196 187 178 159 168 171 177 184 170 199 245 115 152 150 158 173 166 124 132 152 151 163 178 171 173 180 180 177 201 225 219 209 211 210 207 203 196 192 193
200 202 203 202 204 205 209 212 205 199 201 207 208 207 207 206 205 204 204 202 202 201 200 198 194 190 186 188 192 185 165 191 240 221 210 214 218 230 234 219 217 218 220 223 214 211 203 203 202 192 189 171 155 167 176 179 175 162 200 349 71 168 156 148 172 180 166 144 154 150 158 170 168 178 187 192 207 209 222 227 224 221 218 215 210 206 199 197
200 200 198 198 199 202 207 208 203 200 204 207 206 206 206 204 201 199 199 197 196 195 193 191 188 187 186 188 187 172 168 193 230 213 218 221 218 224 224 212 215 218 217 214 208 206 198 195 194 190 185 165 171 168 165 174 181 193 172 43 123 151 100 150 166 179 173 156 158 163 166 164 164 183 198 206 223 220 220 234 229 227 226 224 216 212 207 203
198 197 195 193 193 198 203 204 202 201 204 206 205 207 207 201 195 193 192 190 190 189 187 186 185 186 185 181 177 174 191 210 164 178 222 216 213 218 211 206 212 214 212 207 202 201 193 190 191 187 175 156 182 168 150 163 184 227 145 146 138 97 112 159 171 176 170 169 172 174 169 165 174 187 200 216 228 225 229 238 227 225 220 219 215 215 217 215
195 194 194 192 193 196 199 199 198 199 203 202 200 206 206 197 190 187 187 187 187 185 183 185 184 186 183 177 175 182 204 214 199 196 236 192 200 212 203 203 210 210 209 205 202 199 191 191 190 184 179 186 179 162 153 157 190 243 143 154 137 90 120 151 165 166 164 174 174 171 164 169 185 188 208 226 231 228 231 231 225 223 211 214 215 216 219 221
193 192 192 192 193 194 196 198 198 197 195 193 196 202 199 191 187 184 184 184 183 182 181 184 184 184 181 179 177 187 214 215 209 221 260 184 195 205 201 203 206 205 206 204 203 200 194 194 191 187 195 193 169 159 165 172 206 178 133 140 136 98 107 116 128 149 160 162 162 163 145 155 183 197 240 237 237 231 232 233 230 229 221 216 216 219 221 223
191 190 192 191 192 192 194 199 197 192 189 192 196 195 191 188 184 182 182 182 181 180 181 182 183 182 180 179 175 193 223 220 213 215 232 191 194 197 198 202 202 202 204 201 201 200 197 199 196 192 197 180 162 154 169 185 186 140 125 111 111 102 101 104 117 133 145 148 160 163 127 119 165 190 240 234 234 230 228 232 231 230 230 225 221 221 223 226
189 190 191 189 192 192 192 194 188 185 189 193 193 189 187 185 181 179 180 180 180 179 180 182 182 182 181 179 181 202 219 218 215 212 220 223 196 193 195 198 199 202 202 200 201 199 199 205 197 189 195 180 160 135 158 169 131 135 128 104 89 96 94 85 113 128 131 143 165 156 115 102 136 198 232 207 209 218 222 227 229 230 230 230 229 226 225 227
188 189 189 189 192 190 190 188 181 183 188 188 189 189 187 183 179 177 178 178 179 178 179 181 181 183 181 183 198 206 208 208 207 210 217 232 204 192 192 193 196 200 200 202 202 198 199 203 197 196 191 168 156 137 156 142 132 135 135 117 103 119 101 65 82 138 152 159 160 150 148 186 189 214 218 206 205 203 212 221 224 227 228 228 229 229 229 229
188 187 188 190 190 189 190 187 184 186 186 185 188 188 184 180 176 175 176 176 178 177 178 179 180 182 179 192 213 208 203 207 205 209 215 225 211 191 189 189 191 194 195 200 200 196 198 197 200 201 175 154 145 133 141 128 134 139 139 142 136 170 159 53 19 173 188 161 156 163 229 214 203 213 207 209 217 212 213 219 222 224 225 225 227 229 230 230
186 186 187 189 188 188 188 188 190 188 185 184 187 186 181 177 175 174 173 174 176 176 178 179 179 181 183 202 220 208 207 213 207 209 213 218 208 189 184 186 187 188 191 192 194 196 196 192 194 193 167 149 131 122 125 110 130 138 137 185 162 192 174 76 31 307 179 164 162 188 250 234 182 194 212 223 220 218 221 221 225 227 225 225 225 228 231 233
184 184 185 188 188 188 188 189 190 185 181 183 185 183 177 173 173 174 173 174 176 177 178 177 178 179 188 214 221 207 208 210 204 201 204 209 202 188 182 184 184 182 184 181 184 193 191 186 181 166 136 141 138 130 125 103 98 117 164 173 187 216 170 98 57 5 169 160 174 202 244 251 213 150 208 230 225 226 231 229 231 231 230 229 227 228 230 233
182 182 184 187 186 187 187 186 186 178 177 182 181 176 174 172 171 172 173 175 177 177 175 175 179 176 184 215 208 203 206 206 201 193 193 197 193 186 180 178 176 174 172 170 174 181 178 171 160 139 126 141 152 149 139 141 154 209 220 168 162 204 178 142 119 24 5 145 196 221 271 265 258 39 208 202 209 226 237 240 237 234 236 235 232 232 233 234
181 181 183 185 184 184 182 183 183 176 178 182 174 168 169 169 167 169 170 173 175 172 173 175 176 178 206 216 199 200 203 202 198 190 185 187 185 184 180 171 168 168 164 162 163 164 161 157 149 137 132 148 175 162 158 181 181 165 233 138 145 200 183 175 148 82 5 207 208 212 258 254 198 130 187 174 201 262 255 251 244 239 239 241 239 236 235 237
179 180 182 182 182 181 180 180 177 176 180 178 169 166 165 164 163 166 166 166 164 160 169 175 170 178 227 209 199 200 199 198 195 190 183 180 178 180 179 168 164 162 153 151 155 154 149 145 147 143 150 165 176 184 186 189 172 171 187 172 160 207 218 210 149 112 186 203 217 202 235 251 240 235 237 243 266 276 269 263 260 250 243 243 243 239 238 241
178 179 179 179 179 178 176 174 174 178 178 171 165 160 154 152 153 160 164 162 158 153 169 180 174 176 249 190 194 198 193 192 191 190 184 176 172 174 175 168 164 158 149 150 157 156 144 130 153 174 176 178 187 202 204 168 170 176 174 161 161 176 205 223 96 42 330 196 221 221 233 254 253 251 254 258 267 272 269 269 268 261 250 245 243 244 246 247
177 177 176 177 177 174 173 173 176 178 174 167 159 150 144 147 143 152 163 162 162 159 110 180 179 191 12 174 182 182 175 181 187 186 181 176 169 168 169 164 161 158 153 155 154 154 154 160 188 191 181 180 183 190 88 87 153 154 142 137 158 172 172 119 92 50 5 219 225 232 253 267 264 264 264 261 266 267 265 266 266 263 258 251 247 247 250 248
175 174 174 176 175 173 173 174 175 174 171 165 157 152 156 160 156 167 162 155 164 166 51 179 180 202 301 172 174 172 162 166 181 181 178 175 167 164 166 162 160 164 155 124 119 125 169 194 198 180 150 147 143 116 95 94 117 143 163 164 172 218 140 81 83 71 51 239 223 207 267 263 259 263 265 258 253 251 253 254 258 261 260 257 252 249 249 248
173 172 173 175 174 172 173 172 171 172 169 164 160 159 168 166 167 171 158 129 145 160 153 177 180 214 221 173 168 165 158 151 169 176 174 171 170 169 166 167 170 162 117 124 124 126 194 211 176 120 106 98 90 103 115 96 108 138 161 167 178 182 126 104 110 83 63 243 236 71 264 264 260 262 262 250 239 244 249 248 251 255 255 254 251 249 249 247
172 172 173 173 173 172 172 169 170 172 169 166 165 161 166 166 165 164 153 118 133 138 147 171 181 203 172 168 165 161 157 149 161 172 172 171 174 176 167 164 157 137 159 182 163 162 189 218 118 130 139 125 106 120 122 108 119 135 141 165 171 149 165 194 152 123 54 343 317 312 270 275 263 253 254 245 240 246 250 249 249 248 248 249 248 247 247 246
172 171 173 173 172 172 170 168 171 176 173 168 163 155 160 163 157 155 142 100 125 117 160 170 182 192 170 166 168 166 164 156 161 171 173 171 171 173 166 152 134 143 176 189 171 165 161 7 128 141 156 148 136 157 163 162 178 214 196 172 136 163 189 11 115 132 119 162 315 302 271 271 249 239 245 237 244 250 250 251 251 248 247 248 247 246 246 246
170 170 172 172 172 170 165 167 174 178 175 168 159 155 157 154 152 151 133 92 126 106 161 173 181 191 178 170 170 168 160 152 162 170 173 174 169 160 153 151 154 168 170 149 149 166 90 45 151 143 145 153 147 169 190 196 185 202 228 195 141 167 157 102 126 144 182 201 149 339 261 256 177 234 238 226 314 257 243 246 249 249 247 247 248 247 247 249
170 170 172 171 169 167 163 168 175 175 174 169 159 155 156 152 151 151 133 99 171 137 152 175 179 187 184 176 168 158 153 156 167 170 172 176 173 161 149 150 149 159 152 135 134 165 92 105 153 145 144 147 161 183 194 204 188 192 221 160 123 141 136 134 155 171 210 195 95 324 251 256 279 235 209 360 299 272 248 238 241 245 242 239 242 243 243 245
170 169 171 170 167 166 166 170 173 173 173 169 158 155 155 152 150 152 138 80 191 158 145 171 176 182 184 175 166 159 154 160 161 170 173 174 177 172 164 160 116 136 148 141 160 156 109 127 140 135 138 147 173 186 188 194 187 178 198 132 129 138 142 149 158 175 305 85 141 144 279 271 269 247 118 340 277 269 257 237 228 233 228 223 228 234 238 241
170 169 171 170 169 170 171 171 172 172 169 161 157 157 154 152 154 157 149 148 166 145 148 167 172 180 177 169 170 165 136 151 152 174 176 172 173 173 175 181 144 127 137 175 185 152 94 162 174 148 148 172 182 178 178 182 180 298 205 114 122 125 126 140 149 139 66 252 206 144 25 266 256 234 123 329 272 258 251 226 192 192 197 199 214 233 243 246
170 170 170 170 171 174 176 175 172 167 160 156 156 156 153 152 154 150 159 192 147 114 147 157 161 172 167 162 170 155 139 152 140 163 170 169 170 170 159 156 132 108 75 24 149 90 30 194 187 163 171 175 134 32 333 213 94 144 153 104 95 92 87 107 131 127 123 247 222 126 29 263 259 230 166 23 267 249 248 213 166 185 174 158 175 226 252 254
171 170 169 170 171 174 178 176 170 161 155 157 157 155 154 152 152 156 197 198 144 115 138 152 160 165 161 155 150 139 150 142 111 140 152 156 157 143 117 130 125 110 69 36 71 58 355 133 134 54 156 129 106 66 23 357 121 142 152 112 99 84 69 86 46 90 188 240 215 75 3 277 270 252 193 201 242 246 258 151 157 190 175 126 81 50 341 259
172 169 169 173 174 175 176 172 168 162 158 160 157 156 155 145 142 177 175 150 129 130 140 154 158 159 167 167 152 149 138 60 133 144 146 144 137 125 122 130 119 105 112 84 79 34 67 111 111 72 117 124 116 78 46 54 134 145 168 133 116 95 95 118 82 181 228 226 107 47 329 253 241 245 177 270 280 249 252 159 147 167 186 148 56 38 46 90
171 170 170 173 176 177 175 168 165 162 161 161 158 159 156 128 196 195 160 147 151 170 175 171 172 169 174 169 139 140 126 106 163 157 149 152 151 147 149 174 158 140 173 161 127 98 112 101 31 92 149 177 160 101 81 83 201 213 169 155 149 137 155 194 180 208 234 224 64 28 294 242 244 260 275 273 263 222 235 242 214 234 267 283 343 24 75 97
172 169 167 168 172 175 174 169 164 162 162 161 159 159 152 165 189 177 151 168 165 147 149 139 141 157 162 158 142 145 114 123 178 172 137 141 158 157 57 61 151 140 168 155 140 150 144 146 171 139 179 223 214 142 142 184 201 191 168 168 173 150 164 197 179 242 257 231 53 307 262 249 253 269 256 255 268 236 239 253 257 266 276 285 300 324 108 107
171 167 163 162 167 172 174 171 166 164 163 161 158 154 154 183 183 126 150 185 18 82 118 119 129 141 150 152 160 165 95 77 170 157 142 147 161 173 191 185 182 51 112 138 159 171 177 191 179 158 158 199 214 224 170 144 155 190 174 159 182 169 185 198 177 211 210 105 88 188 241 232 214 67 233 253 292 291 259 255 261 267 274 280 277 227 143 121
167 163 159 158 166 172 174 172 169 168 164 160 158 166 180 187 183 157 162 162 131 122 111 122 134 142 146 88 132 199 239 120 173 153 152 166 175 182 184 183 196 162 140 158 180 174 189 193 76 9 360 164 188 288 343 101 123 197 5 89 204 182 132 122 72 61 100 82 156 192 244 251 270 293 269 264 285 278 261 254 255 259 262 260 243 194 166 143
164 162 160 160 168 173 173 172 172 171 166 161 161 191 194 195 170 164 152 134 144 137 123 126 136 146 155 134 174 228 310 123 167 176 171 184 193 188 187 180 184 194 175 159 156 162 172 131 8 2 59 46 12 322 337 83 145 151 154 179 198 67 98 116 110 48 356 256 193 175 250 270 297 281 280 301 264 256 246 238 242 248 244 234 210 179 174 161
163 165 164 162 168 172 171 173 174 172 169 169 183 189 197 23 116 137 126 123 135 139 135 140 159 164 160 159 182 187 161 121 170 201 174 173 209 186 189 197 182 193 200 152 160 216 165 115 9 341 97 50 358 60 58 21 38 147 176 166 142 54 61 135 172 103 154 247 209 173 246 265 249 246 337 8 229 215 212 230 242 240 225 208 183 175 179 172
163 164 163 164 168 169 170 174 175 172 171 185 199 194 195 73 142 128 133 132 138 151 152 151 160 186 168 166 172 173 169 160 173 192 168 175 216 178 175 196 186 189 198 163 135 204 145 106 77 343 49 51 349 119 126 40 19 14 178 140 132 197 198 173 188 168 182 233 242 203 256 264 215 212 285 286 203 208 212 199 211 209 197 182 168 171 180 177
160 158 159 165 165 166 171 173 173 172 175 204 198 198 149 110 149 158 147 139 135 158 161 157 151 239 179 168 150 159 181 175 163 176 179 183 212 179 177 187 177 183 186 171 150 157 113 135 145 44 339 345 332 233 186 158 71 44 135 137 30 280 202 178 164 177 204 212 238 251 244 236 215 209 221 204 178 173 171 166 189 195 183 171 160 165 174 166
156 149 157 166 162 164 171 169 167 172 192 215 191 184 104 113 139 172 156 141 126 168 160 162 161 147 160 159 136 155 181 171 165 186 212 180 182 205 198 186 141 155 162 119 118 153 114 195 147 100 332 219 186 213 213 179 147 140 166 170 178 126 61 211 130 54 226 191 200 240 244 240 220 201 210 205 179 169 162 144 180 186 179 170 159 156 149 137
152 139 157 167 163 162 164 160 163 181 209 207 154 92 158 138 135 170 169 142 98 113 123 133 154 147 142 151 154 156 153 152 174 192 216 186 195 221 206 187 155 138 134 91 138 167 131 144 136 129 179 196 182 337 311 279 140 163 189 184 175 147 128 186 190 111 16 211 178 205 264 269 226 183 212 214 189 198 199 194 188 183 180 169 152 144 137 129
148 130 163 167 165 162 159 151 160 187 173 160 119 90 140 142 139 163 176 154 92 75 98 108 131 140 143 157 159 155 155 157 179 192 203 206 209 214 198 184 164 155 158 152 144 142 82 99 115 121 180 220 332 3 201 263 310 310 257 212 169 162 169 195 207 179 139 118 106 115 285 282 69 113 221 263 269 256 251 237 207 176 167 156 145 139 133 127
120 119 156 166 165 163 160 150 171 179 214 193 105 66 106 130 136 150 169 177 117 98 118 111 130 146 146 155 148 158 167 164 182 194 194 195 207 217 177 172 163 160 164 147 126 145 107 104 114 97 76 356 326 227 140 157 252 241 237 201 180 201 187 183 207 156 146 161 155 158 252 257 116 106 225 254 262 267 263 237 210 171 158 151 144 136 129 124
113 125 151 166 167 166 166 175 189 182 180 127 98 80 100 85 124 151 171 186 165 154 138 128 163 153 140 152 149 166 176 178 205 209 184 164 187 171 167 168 165 167 177 178 174 176 175 150 126 118 116 137 207 210 187 188 212 224 212 157 162 113 89 91 115 123 197 198 174 200 242 242 272 56 198 223 252 267 259 229 200 174 161 153 144 137 134 130
122 128 151 165 169 174 180 201 183 171 152 136 140 149 134 72 93 159 153 137 129 170 137 135 157 119 121 136 116 163 181 177 190 189 159 150 164 66 170 175 175 178 187 184 167 166 176 176 154 159 166 171 189 201 200 192 185 197 161 150 179 166 151 164 147 155 218 192 161 212 236 234 35 303 214 177 209 252 237 213 196 180 168 160 152 147 145 141
136 131 147 161 172 184 200 194 153 164 164 159 155 164 157 140 138 133 124 134 164 144 97 99 139 106 118 150 135 169 189 168 32 169 163 155 155 20 181 183 185 184 176 162 157 153 145 223 186 198 197 190 201 204 190 149 140 186 195 177 183 185 174 157 129 177 202 151 169 224 232 222 157 219 216 201 199 215 205 194 193 187 177 170 164 156 151 149
150 162 154 155 171 186 202 198 173 169 174 173 168 168 164 149 142 143 138 174 185 167 86 32 159 153 160 165 156 173 181 149 54 160 152 145 140 26 133 177 188 186 155 160 162 148 91 207 200 218 222 217 214 199 170 153 171 197 195 175 173 177 167 173 200 204 148 119 225 235 227 227 220 202 210 207 183 200 211 195 192 190 185 182 177 167 162 169
119 156 176 167 159 186 198 192 181 168 170 179 177 157 161 155 156 168 172 94 177 185 156 64 198 193 172 166 159 152 161 149 116 153 133 138 147 92 90 120 185 191 145 160 168 146 130 203 200 209 223 233 159 114 169 182 193 202 186 176 173 169 170 189 211 208 157 175 239 237 216 218 212 189 210 217 191 197 203 197 194 193 192 194 193 185 180 190
108 108 162 167 156 177 158 144 144 157 169 178 180 170 174 169 165 164 135 123 170 210 205 173 192 194 173 170 160 148 165 173 177 188 166 147 148 130 127 122 187 200 144 143 178 171 169 196 181 184 220 232 122 113 194 187 184 188 184 183 175 173 184 196 210 212 193 210 239 235 209 222 205 180 208 221 206 202 197 196 202 204 204 206 208 208 208 215
122 118 145 142 97 126 135 129 142 162 170 181 187 184 181 175 166 151 114 161 175 188 200 180 177 170 168 175 168 172 187 182 174 182 169 149 162 179 174 173 163 168 158 144 161 206 200 197 140 148 217 228 139 113 143 172 185 178 157 171 174 180 197 206 217 218 207 225 242 237 249 259 210 185 212 224 206 194 195 204 210 213 215 219 223 228 233 239
127 128 143 137 96 132 142 140 158 165 169 192 192 177 179 185 169 143 104 308 182 175 173 157 150 134 138 173 176 186 186 171 166 177 170 162 173 178 181 179 157 149 165 172 157 158 189 196 101 132 206 222 158 141 130 97 98 140 153 181 181 185 200 209 217 214 204 222 235 236 253 259 186 169 206 232 223 210 220 225 226 227 228 231 234 240 247 255
144 137 142 136 108 155 157 145 158 170 180 193 190 173 168 177 163 146 137 33 11 162 164 155 143 121 139 178 191 189 171 157 155 174 172 165 165 167 160 161 163 161 165 170 164 156 170 165 130 170 201 213 54 144 137 108 112 214 214 195 187 193 204 206 215 217 210 214 218 220 232 218 141 152 185 222 231 228 233 237 240 242 241 241 244 249 258 268